Regional Weather Roundup
Issued by NWS

Home | Current Version | Previous Version | Graphics & Text | Print | Product List | Glossary Off
Versions: 1 2 3 4 5 6 7 8 9 10 11 12 13 14 15 16 17 18 19 20 21 22 23 24 25 26 27 28 29 30 31 32 33 34 35 36 37 38 39 40 41 42 43 44 45 46 47 48 49 50

000
ASUS43 KTOP 272259
RWRKS

WEATHER ROUNDUP FOR KANSAS
NATIONAL WEATHER SERVICE GOODLAND KS
600 PM CDT WED MAY 27 2015

NOTE:  "FAIR" INDICATES FEW OR NO CLOUDS BELOW 12,000 FEET WITH NO
SIGNIFICANT WEATHER AND/OR OBSTRUCTIONS TO VISIBILITY.

KSZ001>006-013>018-027>032-041>047-280000-
NORTHWEST KANSAS

CITY           SKY/WX    TMP DP  RH WIND       PRES   REMARKS
GOODLAND       PTSUNNY   68  55  63 SE23G37   29.96F
HAYS           CLOUDY    72  59  64 SE9       30.03R
HILL CITY      LGT RAIN  68  62  81 S10       30.04S
RUSSELL        CLOUDY    74  63  68 SE13      30.02S
$$

KSZ061>065-074>080-084>089-280000-
SOUTHWEST KANSAS

CITY           SKY/WX    TMP DP  RH WIND       PRES   REMARKS
DODGE CITY     LGT RAIN  74  62  66 SE25G32   29.97F
ELKHART          N/A     82  52  35 S21         N/A
GARDEN CITY    CLOUDY    75  60  59 SE28G35   29.93F
GREAT BEND     CLOUDY    73  61  64 SE13      30.01S
LIBERAL        MOSUNNY   77  61  57 SE21      29.96S
$$

KSZ066>073-081>083-090>101-280000-
SOUTHEAST KANSAS

CITY           SKY/WX    TMP DP  RH WIND       PRES   REMARKS
CHANUTE        MOSUNNY   82  64  54 S6        30.03F
COFFEYVILLE    MOSUNNY   83  66  56 VRB5      30.02F
HUTCHINSON     PTSUNNY   81  61  50 SE14G22   30.02S
NEWTON         MOSUNNY   79  61  53 S12       30.06S
PARSONS        SUNNY     81  66  60 SE3       30.04F
WICHITA INTL   PTSUNNY   82  63  52 SE12      30.02S
WICHITA JABRA  SUNNY     80  62  54 SE9       30.02F
WINFIELD       MOSUNNY   82  66  58 SE12      30.02S
$$

KSZ007>012-019>026-033>040-048>060-102>105-280000-
NORTHEAST KANSAS

CITY           SKY/WX    TMP DP  RH WIND       PRES   REMARKS
CONCORDIA      PTSUNNY   77  58  51 SE12      30.03S
EMPORIA        SUNNY     79  61  53 SE8       30.04F
LAWRENCE       MOSUNNY   81  51  35 S6        30.06F
MANHATTAN      SUNNY     81  59  47 SE12      30.03F
OLATHE IND     MOSUNNY   80  52  37 SE7       30.07F
OLATHE EXE     MOSUNNY   79  53  40 SE3       30.07F
SALINA         PTSUNNY   80  61  52 SE14      30.02F
TOPEKA BILLARD MOSUNNY   81  56  42 E9        30.05F
TOPEKA FORBES  MOSUNNY   82  56  40 SE7       30.06F
$$



USA.gov is the U.S. government's official web portal to all federal, state and local government web resources and services.